MDT,Max TemperatureF,Mean TemperatureF,Min TemperatureF,Max Dew PointF,MeanDew PointF,Min DewpointF,Max Humidity, Mean Humidity, Min Humidity, Max Sea Level PressureIn, Mean Sea Level PressureIn, Min Sea Level PressureIn, Max VisibilityMiles, Mean VisibilityMiles, Min VisibilityMiles, Max Wind SpeedMPH, Mean Wind SpeedMPH, Max Gust SpeedMPH,PrecipitationIn, CloudCover, Events, WindDirDegrees
2011-9-1,65,56,47,48,43,34,93,64,34,30.11,30.04,29.96,10,10,10,17,7,28,0.10,5,Rain,308
2011-9-2,70,58,45,41,34,31,61,43,24,30.25,30.01,29.86,10,10,10,38,13,49,0.00,2,,291
2011-9-3,68,52,35,37,34,27,85,55,24,30.39,30.31,30.24,10,10,10,12,6,14,0.00,1,,52
2011-9-4,84,61,38,33,28,17,70,40,9,30.22,30.04,29.88,10,10,10,16,8,21,0.00,0,,202
2011-9-5,89,67,45,30,27,25,45,28,10,29.98,29.88,29.81,10,10,10,15,7,24,0.00,0,,238
2011-9-6,87,66,44,30,27,21,53,31,9,30.16,30.07,29.94,10,10,10,13,5,18,0.00,0,,241
2011-9-7,91,68,45,30,28,24,49,29,9,30.32,30.21,30.16,10,10,10,12,6,15,0.00,0,,181
2011-9-8,89,71,52,36,30,26,43,28,12,30.28,30.17,30.12,10,10,10,10,5,14,0.00,0,,45
2011-9-9,88,69,49,36,32,25,52,32,11,30.28,30.16,30.09,10,10,10,15,6,21,0.00,0,,67
2011-9-10,88,67,45,35,30,25,50,31,11,30.14,30.07,29.99,10,10,10,13,6,16,0.00,0,,96
2011-9-11,91,69,47,46,31,24,57,33,9,30.09,29.93,29.81,10,10,6,33,11,44,0.00,0,,258
2011-9-12,79,60,41,44,41,38,83,56,28,30.19,30.09,29.95,10,10,10,22,9,25,0.00,2,,23
2011-9-13,67,54,40,41,37,32,92,65,37,30.28,30.24,30.20,10,10,10,21,10,25,0.00,1,,20
2011-9-14,69,59,48,40,37,34,66,49,32,30.26,30.15,29.96,10,10,10,20,9,24,0.00,2,,110
2011-9-15,84,66,48,42,39,35,71,45,18,29.96,29.80,29.67,10,10,9,23,9,29,T,2,Rain,200
2011-9-16,70,60,50,51,39,31,77,51,24,29.82,29.75,29.68,10,10,10,24,13,35,0.01,3,Rain,222
2011-9-17,69,57,44,32,28,23,58,39,20,30.00,29.89,29.80,10,10,10,28,14,35,0.00,0,,237
2011-9-18,69,57,44,41,37,26,51,43,35,30.07,30.04,29.99,10,10,10,31,18,44,0.00,2,,227
2011-9-19,70,55,39,45,41,37,92,65,37,30.24,30.02,29.80,10,10,2,45,14,55,0.09,5,Rain,260
2011-9-20,64,48,32,38,33,29,100,64,27,30.35,30.27,30.19,10,10,10,13,6,15,0.00,0,,181
2011-9-21,76,56,36,34,31,28,76,47,18,30.17,30.09,30.00,10,10,10,13,8,17,0.00,0,,185
2011-9-22,86,69,52,34,31,25,46,29,11,30.05,29.97,29.93,10,10,10,25,14,32,0.00,0,,219
2011-9-23,89,74,59,35,33,31,39,26,13,30.10,29.97,29.90,10,10,10,25,14,31,0.00,0,,217
2011-9-24,90,73,55,34,28,23,36,23,9,30.06,29.91,29.80,10,10,10,15,9,20,0.00,0,,187
2011-9-25,91,68,45,36,28,24,42,26,9,29.81,29.69,29.58,10,10,10,20,8,25,0.00,0,,226
2011-9-26,77,64,50,43,36,30,64,42,19,30.02,29.89,29.68,10,10,10,25,13,33,T,1,,234
2011-9-27,86,70,54,43,37,33,54,36,17,29.98,29.89,29.78,10,10,10,37,15,46,0.00,0,,222
2011-9-28,69,53,37,45,30,18,66,40,14,30.40,30.15,29.93,10,10,10,23,10,30,0.00,2,,354
2011-9-29,74,54,33,28,25,21,56,37,17,30.44,30.26,30.00,10,10,10,20,7,25,0.00,0,,144
2011-9-30,90,74,57,33,30,28,33,23,12,29.99,29.87,29.76,10,10,8,31,14,38,0.00,0,,214